• In Sweden
  • List of Countries
  • For 7 days
  • Water Temperature
  • Satellite Maps
  • Weather Map
  • Weather Widgets
  • user-avatar
    Login

    Hourly Weather Novoe Vysokoe

    Today, 23 October, Tuesday

    Time Temperature Precipitation Wind Pressure Humidity
    00:00 +3°C° 0.1 mm 4 mps 737 mmHg 86%
    01:00 +3°C° 0.1 mm 4 mps 736 mmHg 88%
    02:00 +3°C° 0 mm 4 mps 735 mmHg 89%
    03:00 +3°C° 0.4 mm 4 mps 735 mmHg 90%
    04:00 +3°C° 0.4 mm 4 mps 734 mmHg 91%
    05:00 +4°C° 0.4 mm 3 mps 734 mmHg 92%
    06:00 +4°C° 0.1 mm 3 mps 734 mmHg 92%
    07:00 +4°C° 0.1 mm 3 mps 733 mmHg 92%
    08:00 +4°C° 0.1 mm 3 mps 733 mmHg 92%
    09:00 +4°C° 0 mm 3 mps 733 mmHg 88%
    10:00 +5°C° 0 mm 3 mps 732 mmHg 83%
    11:00 +5°C° 0 mm 3 mps 732 mmHg 78%
    12:00 +5°C° 0 mm 3 mps 731 mmHg 77%
    13:00 +5°C° 0 mm 3 mps 731 mmHg 76%
    14:00 +5°C° 0 mm 3 mps 730 mmHg 74%
    15:00 +5°C° 0 mm 3 mps 729 mmHg 77%
    16:00 +5°C° 0 mm 2 mps 728 mmHg 80%
    17:00 +5°C° 0 mm 2 mps 728 mmHg 83%
    18:00 +4°C° 0 mm 2 mps 727 mmHg 83%
    19:00 +3°C° 0 mm 3 mps 726 mmHg 84%
    20:00 +3°C° 0 mm 3 mps 725 mmHg 85%
    21:00 +3°C° 0.1 mm 3 mps 724 mmHg 84%
    22:00 +3°C° 0.1 mm 3 mps 723 mmHg 83%
    23:00 +3°C° 0.1 mm 3 mps 722 mmHg 82%

    Tomorrow, 24 October, Wednesday

    Time Temperature Precipitation Wind Pressure Humidity
    00:00 +3°C° 0.2 mm 4 mps 722 mmHg 83%
    01:00 +3°C° 0.2 mm 4 mps 721 mmHg 83%
    02:00 +2°C° 0.2 mm 5 mps 720 mmHg 84%
    03:00 +2°C° 0.3 mm 5 mps 719 mmHg 85%
    04:00 +2°C° 0.3 mm 5 mps 718 mmHg 85%
    05:00 +2°C° 0.3 mm 5 mps 717 mmHg 85%
    06:00 +2°C° 0.3 mm 5 mps 716 mmHg 85%
    07:00 +2°C° 0.3 mm 5 mps 716 mmHg 86%
    08:00 +2°C° 0.3 mm 5 mps 715 mmHg 86%
    09:00 +3°C° 0.2 mm 5 mps 715 mmHg 85%
    10:00 +4°C° 0.2 mm 4 mps 715 mmHg 85%
    11:00 +4°C° 0.2 mm 4 mps 715 mmHg 85%
    12:00 +4°C° 0.7 mm 4 mps 714 mmHg 86%
    13:00 +4°C° 0.7 mm 3 mps 714 mmHg 88%
    14:00 +4°C° 0.7 mm 3 mps 714 mmHg 89%
    15:00 +4°C° 1.1 mm 3 mps 714 mmHg 91%
    16:00 +5°C° 1.1 mm 2 mps 714 mmHg 92%
    17:00 +5°C° 1.1 mm 2 mps 714 mmHg 94%
    18:00 +5°C° 0.7 mm 2 mps 715 mmHg 94%
    19:00 +4°C° 0.7 mm 2 mps 715 mmHg 94%
    20:00 +4°C° 0.7 mm 2 mps 715 mmHg 94%
    21:00 +4°C° 0.3 mm 2 mps 715 mmHg 94%
    22:00 +4°C° 0.3 mm 2 mps 716 mmHg 93%
    23:00 +4°C° 0.3 mm 2 mps 716 mmHg 93%

    Day after tomorrow, 25 October, Thursday

    Time Temperature Precipitation Wind Pressure Humidity
    00:00 +3°C° 0.3 mm 3 mps 716 mmHg 92%
    01:00 +3°C° 0.3 mm 3 mps 716 mmHg 92%
    02:00 +3°C° 0.3 mm 3 mps 717 mmHg 92%
    03:00 +3°C° 0.3 mm 4 mps 717 mmHg 90%
    04:00 +3°C° 0.3 mm 4 mps 717 mmHg 89%
    05:00 +2°C° 0.3 mm 5 mps 717 mmHg 88%
    06:00 +2°C° 0.3 mm 5 mps 717 mmHg 87%
    07:00 +2°C° 0.3 mm 5 mps 717 mmHg 85%
    08:00 +1°C° 0.3 mm 5 mps 718 mmHg 84%
    09:00 +2°C° 0.4 mm 5 mps 718 mmHg 82%
    10:00 +2°C° 0.4 mm 5 mps 718 mmHg 81%
    11:00 +2°C° 0.4 mm 6 mps 719 mmHg 79%
    12:00 +2°C° 0.1 mm 5 mps 719 mmHg 78%
    13:00 +1°C° 0.1 mm 5 mps 719 mmHg 78%
    14:00 +1°C° 0.1 mm 5 mps 720 mmHg 77%
    15:00 +1°C° 0 mm 5 mps 720 mmHg 78%
    16:00 +1°C° 0 mm 5 mps 721 mmHg 79%
    17:00 0°C° 0 mm 4 mps 721 mmHg 80%
    18:00 0°C° 0 mm 4 mps 721 mmHg 80%
    19:00 0°C° 0 mm 4 mps 722 mmHg 80%
    20:00 +1°C° 0 mm 3 mps 722 mmHg 80%
    21:00 +1°C° 0 mm 3 mps 722 mmHg 82%
    22:00 +1°C° 0 mm 3 mps 722 mmHg 84%
    23:00 +1°C° 0 mm 3 mps 723 mmHg 86%

    26 October, Friday

    Time Temperature Precipitation Wind Pressure Humidity
    00:00 +1°C° 0 mm 3 mps 723 mmHg 87%
    01:00 0°C° 0 mm 3 mps 723 mmHg 89%
    02:00 0°C° 0 mm 3 mps 724 mmHg 91%
    03:00 -1°C° 0 mm 3 mps 724 mmHg 92%
    04:00 -1°C° 0 mm 3 mps 724 mmHg 94%
    05:00 -2°C° 0 mm 3 mps 725 mmHg 95%
    06:00 -1°C° 0 mm 3 mps 725 mmHg 93%
    07:00 -1°C° 0 mm 3 mps 725 mmHg 91%
    08:00 -1°C° 0 mm 3 mps 726 mmHg 88%
    09:00 0°C° 0 mm 3 mps 726 mmHg 85%
    10:00 0°C° 0 mm 4 mps 726 mmHg 81%
    11:00 +1°C° 0 mm 4 mps 726 mmHg 77%
    12:00 +1°C° 0.2 mm 4 mps 727 mmHg 78%
    13:00 +1°C° 0.2 mm 4 mps 727 mmHg 79%
    14:00 +3°C° 0.2 mm 4 mps 727 mmHg 80%
    15:00 +1°C° 0.1 mm 4 mps 727 mmHg 81%
    16:00 0°C° 0.1 mm 4 mps 728 mmHg 83%
    17:00 +1°C° 0.1 mm 3 mps 728 mmHg 85%
    18:00 +1°C° 0 mm 3 mps 728 mmHg 85%
    19:00 0°C° 0 mm 4 mps 729 mmHg 85%
    20:00 -1°C° 0 mm 4 mps 729 mmHg 86%
    21:00 -1°C° 0 mm 4 mps 729 mmHg 88%
    22:00 -1°C° 0 mm 4 mps 730 mmHg 90%
    23:00 -1°C° 0 mm 4 mps 730 mmHg 92%

    27 October, Saturday

    Time Temperature Precipitation Wind Pressure Humidity
    00:00 -1°C° 0 mm 4 mps 731 mmHg 92%
    01:00 -1°C° 0 mm 4 mps 731 mmHg 93%
    02:00 -2°C° 0 mm 4 mps 731 mmHg 93%
    03:00 -2°C° 0 mm 4 mps 731 mmHg 93%
    04:00 -1°C° 0 mm 3 mps 731 mmHg 94%
    05:00 -1°C° 0 mm 3 mps 732 mmHg 94%
    06:00 -2°C° 0.1 mm 4 mps 731 mmHg 92%
    07:00 -1°C° 0.1 mm 4 mps 731 mmHg 90%
    08:00 0°C° 0.1 mm 5 mps 731 mmHg 89%
    09:00 0°C° 0.4 mm 5 mps 730 mmHg 87%
    10:00 +1°C° 0.4 mm 6 mps 730 mmHg 85%
    11:00 +2°C° 0.4 mm 7 mps 729 mmHg 83%
    12:00 +2°C° 0.7 mm 7 mps 729 mmHg 83%
    13:00 +3°C° 0.7 mm 7 mps 728 mmHg 84%
    14:00 +3°C° 0.7 mm 7 mps 727 mmHg 84%
    15:00 +3°C° 1 mm 7 mps 727 mmHg 85%
    16:00 +4°C° 1 mm 7 mps 726 mmHg 87%
    17:00 +4°C° 1 mm 7 mps 726 mmHg 88%
    18:00 +4°C° 0.4 mm 6 mps 726 mmHg 86%
    19:00 +4°C° 0.4 mm 6 mps 726 mmHg 85%
    20:00 +3°C° 0.4 mm 6 mps 726 mmHg 83%
    21:00 +3°C° 0 mm 6 mps 726 mmHg 84%
    22:00 +3°C° 0 mm 6 mps 726 mmHg 84%
    23:00 +2°C° 0 mm 6 mps 727 mmHg 84%

    28 October, Sunday

    Time Temperature Precipitation Wind Pressure Humidity
    00:00 +2°C° 0 mm 6 mps 727 mmHg 83%
    01:00 +2°C° 0 mm 6 mps 728 mmHg 82%
    02:00 +2°C° 0 mm 6 mps 729 mmHg 82%
    03:00 +1°C° 0 mm 6 mps 730 mmHg 82%
    04:00 0°C° 0 mm 5 mps 730 mmHg 82%
    05:00 -1°C° 0 mm 5 mps 731 mmHg 82%
    06:00 -1°C° 0 mm 4 mps 732 mmHg 82%
    07:00 -1°C° 0 mm 4 mps 733 mmHg 82%
    08:00 -1°C° 0 mm 4 mps 735 mmHg 82%
    09:00 0°C° 0 mm 4 mps 735 mmHg 79%
    10:00 0°C° 0 mm 4 mps 736 mmHg 76%
    11:00 +1°C° 0 mm 4 mps 737 mmHg 73%
    12:00 +1°C° 0 mm 4 mps 738 mmHg 72%
    13:00 +2°C° 0 mm 3 mps 738 mmHg 70%
    14:00 +2°C° 0 mm 3 mps 739 mmHg 69%
    15:00 +2°C° 0 mm 2 mps 739 mmHg 73%
    16:00 +2°C° 0 mm 2 mps 740 mmHg 77%
    17:00 +2°C° 0 mm 1 mps 740 mmHg 81%
    18:00 +1°C° 0 mm 1 mps 741 mmHg 83%
    19:00 +1°C° 0 mm 1 mps 741 mmHg 85%
    20:00 0°C° 0 mm 1 mps 741 mmHg 87%
    21:00 0°C° 0 mm 1 mps 742 mmHg 87%
    22:00 0°C° 0 mm 1 mps 742 mmHg 87%
    23:00 0°C° 0 mm 1 mps 743 mmHg 88%

    29 October, Monday

    Time Temperature Precipitation Wind Pressure Humidity
    00:00 0°C° 0 mm 1 mps 743 mmHg 87%
    01:00 +1°C° 0 mm 1 mps 743 mmHg 86%
    02:00 +1°C° 0 mm 1 mps 744 mmHg 85%
    03:00 +1°C° 0 mm 1 mps 743 mmHg 84%
    04:00 -1°C° 0 mm 2 mps 743 mmHg 83%
    05:00 -1°C° 0 mm 2 mps 743 mmHg 83%
    06:00 -1°C° 0.1 mm 3 mps 743 mmHg 82%
    07:00 -1°C° 0.1 mm 3 mps 743 mmHg 82%
    08:00 -2°C° 0.1 mm 4 mps 743 mmHg 82%
    09:00 -2°C° 0.6 mm 4 mps 743 mmHg 84%
    10:00 -2°C° 0.6 mm 4 mps 743 mmHg 87%
    11:00 -2°C° 0.6 mm 4 mps 743 mmHg 89%
    12:00 -2°C° 0.3 mm 5 mps 742 mmHg 88%
    13:00 -2°C° 0.3 mm 5 mps 742 mmHg 88%
    14:00 -2°C° 0.3 mm 5 mps 741 mmHg 88%
    15:00 -1°C° 0.2 mm 5 mps 741 mmHg 89%
    16:00 -1°C° 0.2 mm 5 mps 741 mmHg 89%
    17:00 -2°C° 0.2 mm 6 mps 740 mmHg 90%
    18:00 -1°C° 0.1 mm 5 mps 740 mmHg 91%
    19:00 -1°C° 0.1 mm 5 mps 740 mmHg 92%
    20:00 0°C° 0.1 mm 5 mps 740 mmHg 93%
    21:00 0°C° 0.1 mm 5 mps 739 mmHg 94%
    22:00 +1°C° 0.1 mm 5 mps 739 mmHg 94%
    23:00 +1°C° 0.1 mm 5 mps 739 mmHg 95%
    Show more